Location: Greenhawk Observatory
(37.3417°N, 122.0298°W)
Time: 16:17:20
(UTC-08:00)

Daily predictions for brighter satellites

Satellite Brightness Start Highest point End
(mag) Time Altitude Azimuth Time Altitude Azimuth Time Altitude Azimuth
Cosmos 1975 Rocket 3.8 18:14:36 10° NNW 18:18:51 59° W 18:23:05 10° S
NOAA 12 4.4 18:14:35 10° SE 18:19:36 45° ENE 18:24:40 10° N
Cosmos 1386 Rocket 4.4 18:13:57 10° S 18:20:03 79° E 18:26:06 10° N
SKYMED 2 3.8 18:18:24 10° N 18:22:46 79° WNW 18:27:05 10° SSW
Cosmos 1536 4.3 18:23:05 10° SE 18:25:42 17° E 18:28:19 10° NE
Cosmos 44 4.0 18:21:27 10° NW 18:25:44 52° WSW 18:29:53 10° SSE
Cosmos 1633 3.2 18:25:10 10° SSE 18:28:32 35° E 18:31:54 10° NNE
GEOS 3 Rocket 4.3 18:24:08 10° NE 18:28:54 34° ESE 18:33:41 10° S
METEOR-M 4.2 18:25:34 10° SSE 18:30:46 56° ENE 18:35:59 10° N
Cosmos 1812 3.0 18:28:00 10° N 18:31:52 74° W 18:35:41 10° S
Okean 1 3.3 18:28:08 10° N 18:32:11 66° E 18:36:13 10° SSE
BREEZE-M DEB (TANK) 3.6 18:23:07 10° NW 18:32:30 65° NNE 18:35:33 10° ESE
COSMOS 2428 4.0 18:29:21 10° N 18:33:26 20° NE 18:37:30 10° E
Cosmos 1536 Rocket 3.6 18:33:23 10° N 18:37:51 63° E 18:42:16 10° SSE
Cosmos 1818 4.4 18:40:41 10° SW 18:46:00 54° NW 18:51:21 10° NNE
Cosmos 676 Rocket 4.4 18:45:49 10° SSW 18:50:57 67° WNW 18:56:10 10° NNE
Cosmos 2219 3.7 18:47:03 10° S 18:52:19 38° ESE 18:57:36 10° NE
Cosmos 2360 Rocket 2.2 18:47:11 10° NNW 18:52:47 59° ENE 18:58:21 10° SE
Cosmos 2219 Rocket 3.7 18:50:38 10° NNE 18:54:02 16° NE 18:55:22 15° ENE
Cosmos 1461 4.1 18:54:42 10° NW 18:58:32 42° WSW 19:02:27 10° S
Cosmos 1602 3.7 18:54:57 10° S 18:58:49 88° E 19:02:44 10° N
Abrixas rocket 2.7 18:57:51 10° SSW 19:01:03 42° SE 19:02:26 26° E
Meteor 1-11 Rocket 3.7 18:56:58 10° S 19:02:43 76° E 19:08:37 10° NNE
Resurs 01 Rocket 1.9 18:59:15 10° SE 19:03:25 44° ENE 19:07:36 10° N
Cosmos 1300 Rocket 3.5 18:59:30 10° S 19:03:55 89° NW 19:08:22 10° N
Cosmos 1140 Rocket 3.5 19:00:20 10° SSW 19:05:27 82° WNW 19:10:38 10° NNE
DELTA 2 R/B (1) 3.7 19:02:51 10° WNW 19:08:29 78° SSW 19:12:19 21° ESE
FREGAT/IRIS 3.3 19:06:05 10° S 19:09:07 59° W 19:12:11 10° NNW
Cosmos 614 Rocket 3.9 19:07:55 10° SSW 19:13:00 87° ESE 19:18:06 10° NNE
ALOS 2.1 19:08:36 10° SSE 19:13:14 78° ENE 19:17:56 10° N
Cosmos 1340 3.6 19:13:56 10° NNW 19:17:37 51° W 19:21:16 10° S
Helios 1A 3.7 19:17:34 31° ENE 19:17:43 31° ENE 19:21:24 10° N
Spot 2 Rocket 3.4 19:15:54 10° SSE 19:20:54 67° ENE 19:25:57 10° N
Resurs 1-3 3.6 19:16:39 10° SSE 19:20:56 58° ENE 19:25:15 10° N
Cosmos 2327 Rocket 4.5 19:16:08 10° S 19:22:12 58° E 19:28:22 10° NNE
OTV 4 3.0 19:23:33 10° S 19:24:05 12° S 19:24:05 12° S
Cosmos 2208 Rocket 4.0 19:21:55 10° N 19:27:20 61° ENE 19:31:09 19° SE
Cosmos 2333 Rocket 3.3 19:23:45 10° N 19:28:17 25° NE 19:28:17 25° NE
HJ-1C 3.9 19:25:20 10° S 19:28:39 59° W 19:32:01 10° NNW
Cosmos 2181 Rocket 4.4 19:23:10 10° NNW 19:29:22 66° W 19:35:38 10° S
Tiangong 2 2.9 19:27:00 10° W 19:29:33 24° SW 19:30:32 20° S
Helios 1B rocket 2.5 19:30:51 39° NE 19:31:57 51° E 19:35:58 10° S
Cosmos 1850 Rocket 4.2 19:27:54 10° SSW 19:33:11 74° WNW 19:38:32 10° NNE
Okean 2 4.3 19:31:44 10° N 19:34:27 33° NE 19:34:27 33° NE
Envisat 4.2 19:38:53 25° NE 19:38:53 25° NE 19:41:45 10° N
Genesis I 3.0 19:34:09 10° NNW 19:38:05 69° ENE 19:38:11 69° ENE
SAR-Lupe-4 3.9 19:39:05 52° NNE 19:39:05 52° NNE 19:41:57 10° N
Okean 1 Rocket 4.1 19:34:43 10° SSW 19:39:02 47° W 19:43:23 10° N
USA 229 DEB 4.0 19:32:39 10° NNW 19:39:35 50° NE 19:42:02 37° ESE
USA 229 4.0 19:32:46 10° NNW 19:39:41 50° NE 19:42:06 37° E
Cosmos 2074 Rocket 3.9 19:35:23 10° S 19:41:37 89° W 19:47:56 10° N
ATLAS 2A CENTAUR R/B 3.9 19:39:35 10° SW 19:42:28 20° S 19:44:17 18° SSE
Hubble Space Telescope 2.9 19:40:14 10° SSW 19:42:10 16° S 19:42:10 16° S
Cosmos 2184 Rocket 4.0 19:38:25 10° S 19:44:45 88° W 19:51:03 10° N
FENGYUN 3A 4.5 19:43:47 10° S 19:49:01 51° W 19:54:18 10° NNW
Meteor 1-5 Rocket 4.3 19:43:33 10° S 19:49:32 84° W 19:55:29 10° N
CZ-2D R/B 3.5 19:54:14 64° SW 19:54:28 67° WSW 19:58:17 10° NNW
GPS 2-04 Rocket1 3.2 19:51:46 10° WSW 19:55:32 55° SSW 19:55:32 55° SSW
H-2A R/B 4.0 19:56:51 15° SSW 19:59:32 39° W 20:03:04 10° NNW
Cosmos 1025 Rocket 3.5 19:56:08 10° NNW 20:00:26 59° W 20:02:48 26° SSW
Gbstr 26 Del rocket 4.4 19:58:32 10° W 20:01:41 25° NNW 20:02:04 24° NNW
Nadezhda 3 Rocket 4.0 20:00:43 10° N 20:06:14 58° NE 20:06:14 58° NE
Atlas Centaur 2 4.4 20:07:09 10° SSW 20:08:55 14° S 20:08:55 14° S
Cosmos 2154 Rocket 3.9 20:07:23 10° S 20:13:43 82° E 20:20:06 10° N
Cosmos 2285 Rocket 4.0 20:09:29 10° NNW 20:15:58 82° WSW 20:17:45 51° S
COSMOS 2428 3.2 20:12:31 10° NNW 20:18:06 58° WSW 20:19:51 40° SSW
Cosmos 2333 4.5 20:13:40 10° NNW 20:19:20 66° WSW 20:20:25 55° SSW
Cosmos 2237 Rocket 3.4 20:16:27 10° N 20:19:36 31° N 20:19:36 31° N
ATLAS CENTAUR R/B 4.3 20:24:46 10° WSW 20:26:02 16° WSW 20:26:02 16° WSW
H-2A R/B 4.2 20:29:29 10° SSW 21:08:02 - E 20:31:38 26° S
NOSS 0 Rocket 4.3 20:31:48 10° NNW 20:36:30 55° NNW 20:36:30 55° NNW
Cosmos 2219 Rocket 2.8 20:32:57 10° NNW 20:37:09 50° NW 20:37:09 50° NW
Cosmos 2227 Rocket 4.4 20:36:33 10° SSW 20:37:22 14° SSW 20:37:22 14° SSW
SL-16 R/B 4.5 20:50:15 10° N 20:51:08 14° N 20:51:08 14° N
CZ-3 Stage 3 4.5 20:50:04 10° SW 21:10:20 38° SSW 21:10:20 38° SSW
Cosmos 2333 Rocket 3.9 21:07:25 10° NW 21:10:20 28° NW 21:10:20 28° NW
